| time (UTC) | temp F | wind direction | speed MPH | gust MPH | rain 1hr in | rain 24hr in | rain mn in | humidity % | barometer mb |
| 20260504020650 | 63 | 215 | 1.0 | 4.0 | 0.00 | 0.00 | 0.00 | 65 | 1011.4 |
| 20260504020045 | 63 | 192 | 1.0 | 6.0 | 0.00 | 0.00 | 0.00 | 66 | 1011.6 |
| 20260504015545 | 64 | 197 | 1.0 | 6.0 | 0.00 | 0.00 | 0.00 | 65 | 1011.5 |
| 20260504015045 | 63 | 194 | 1.0 | 3.0 | 0.00 | 0.00 | 0.00 | 65 | 1011.4 |
| 20260504014544 | 64 | 186 | 1.0 | 3.0 | 0.00 | 0.00 | 0.00 | 63 | 1011.3 |
| 20260504014044 | 65 | 194 | 1.0 | 8.0 | 0.00 | 0.00 | 0.00 | 62 | 1011.4 |
| 20260504013547 | 65 | 171 | 1.0 | 8.0 | 0.00 | 0.00 | 0.00 | 63 | 1011.3 |
| 20260504013050 | 64 | 171 | 1.0 | 4.0 | 0.00 | 0.00 | 0.00 | 63 | 1011.3 |
| 20260504012544 | 64 | 200 | 1.0 | 4.0 | 0.00 | 0.00 | 0.00 | 64 | 1011.3 |
| 20260504012044 | 64 | 186 | 1.0 | 4.0 | 0.00 | 0.00 | 0.00 | 63 | 1011.2 |
| 20260504011544 | 65 | 198 | 1.0 | 3.0 | 0.00 | 0.00 | 0.00 | 62 | 1011.2 |
| 20260504011046 | 65 | 190 | 0.0 | 5.0 | 0.00 | 0.00 | 0.00 | 62 | 1011.2 |
| 20260504010643 | 66 | 178 | 1.0 | 5.0 | 0.00 | 0.00 | 0.00 | 60 | 1011.0 |
| 20260504010053 | 68 | 194 | 2.0 | 6.0 | 0.00 | 0.00 | 0.00 | 58 | 1011.1 |
| 20260504005542 | 68 | 187 | 2.0 | 6.0 | 0.00 | 0.00 | 0.00 | 55 | 1011.0 |
| 20260504005043 | 69 | 165 | 2.0 | 6.0 | 0.00 | 0.00 | 0.00 | 55 | 1011.0 |
| 20260504004546 | 69 | 182 | 3.0 | 6.0 | 0.00 | 0.00 | 0.00 | 53 | 1010.9 |
| 20260504004042 | 70 | 188 | 2.0 | 7.0 | 0.00 | 0.00 | 0.00 | 53 | 1011.0 |
| 20260504003542 | 70 | 215 | 3.0 | 10.0 | 0.00 | 0.00 | 0.00 | 53 | 1011.0 |
| 20260504003043 | 71 | 197 | 1.0 | 11.0 | 0.00 | 0.00 | 0.00 | 52 | 1011.0 |
| 20260504002541 | 71 | 184 | 3.0 | 11.0 | 0.00 | 0.00 | 0.00 | 51 | 1010.9 |
| 20260504002041 | 72 | 211 | 4.0 | 10.0 | 0.00 | 0.00 | 0.00 | 50 | 1011.0 |
| 20260504001541 | 72 | 213 | 3.0 | 20.0 | 0.00 | 0.00 | 0.00 | 50 | 1011.0 |
| 20260504001043 | 72 | 200 | 4.0 | 20.0 | 0.00 | 0.00 | 0.00 | 49 | 1011.0 |
| 20260504000640 | 72 | 219 | 4.0 | 10.0 | 0.00 | 0.00 | 0.00 | 49 | 1011.0 |
| 20260504000038 | 73 | 169 | 4.0 | 11.0 | 0.00 | 0.00 | 0.00 | 49 | 1011.0 |
| 20260503235538 | 73 | 171 | 4.0 | 14.0 | 0.00 | 0.00 | 0.00 | 49 | 1011.0 |
| 20260503235038 | 73 | 155 | 3.0 | 14.0 | 0.00 | 0.00 | 0.00 | 48 | 1011.0 |
| 20260503234541 | 73 | 188 | 3.0 | 10.0 | 0.00 | 0.00 | 0.00 | 49 | 1011.0 |
| 20260503234041 | 73 | 200 | 3.0 | 10.0 | 0.00 | 0.00 | 0.00 | 49 | 1011.1 |
| 20260503233537 | 73 | 234 | 3.0 | 11.0 | 0.00 | 0.00 | 0.00 | 48 | 1011.1 |
| 20260503233038 | 73 | 201 | 3.0 | 10.0 | 0.00 | 0.00 | 0.00 | 48 | 1011.1 |
| 20260503232537 | 73 | 187 | 3.0 | 17.0 | 0.00 | 0.00 | 0.00 | 48 | 1011.2 |
| 20260503232036 | 73 | 238 | 5.0 | 18.0 | 0.00 | 0.00 | 0.00 | 48 | 1011.3 |
| 20260503231536 | 74 | 213 | 4.0 | 12.0 | 0.00 | 0.00 | 0.00 | 47 | 1011.2 |
| 20260503231038 | 73 | 197 | 4.0 | 17.0 | 0.00 | 0.00 | 0.00 | 48 | 1011.3 |
| 20260503230637 | 73 | 188 | 8.0 | 17.0 | 0.00 | 0.00 | 0.00 | 47 | 1011.3 |
| 20260503230110 | 73 | 179 | 2.0 | 18.0 | 0.00 | 0.00 | 0.00 | 47 | 1011.4 |
| 20260503225555 | 74 | 184 | 8.0 | 19.0 | 0.00 | 0.00 | 0.00 | 47 | 1011.5 |
| 20260503225054 | 74 | 231 | 6.0 | 19.0 | 0.00 | 0.00 | 0.00 | 47 | 1011.5 |
| 20260503224554 | 74 | 168 | 6.0 | 17.0 | 0.00 | 0.00 | 0.00 | 47 | 1011.5 |
| 20260503224054 | 74 | 221 | 4.0 | 13.0 | 0.00 | 0.00 | 0.00 | 47 | 1011.7 |
| 20260503223554 | 74 | 196 | 3.0 | 11.0 | 0.00 | 0.00 | 0.00 | 48 | 1011.5 |
| 20260503223109 | 74 | 184 | 3.0 | 12.0 | 0.00 | 0.00 | 0.00 | 47 | 1011.7 |
| 20260503222552 | 74 | 178 | 2.0 | 17.0 | 0.00 | 0.00 | 0.00 | 48 | 1011.6 |
| 20260503222052 | 74 | 228 | 5.0 | 18.0 | 0.00 | 0.00 | 0.00 | 46 | 1011.7 |
| 20260503221554 | 74 | 212 | 6.0 | 18.0 | 0.00 | 0.00 | 0.00 | 46 | 1011.7 |
| 20260503221052 | 74 | 184 | 6.0 | 15.0 | 0.00 | 0.00 | 0.00 | 46 | 1011.9 |
| 20260503220651 | 74 | 225 | 5.0 | 19.0 | 0.00 | 0.00 | 0.00 | 45 | 1011.9 |
| 20260503220053 | 74 | 255 | 5.0 | 22.0 | 0.00 | 0.00 | 0.00 | 46 | 1011.9 |
| 20260503215551 | 74 | 153 | 9.0 | 22.0 | 0.00 | 0.00 | 0.00 | 44 | 1012.0 |
| 20260503215051 | 74 | 213 | 8.0 | 17.0 | 0.00 | 0.00 | 0.00 | 44 | 1012.0 |
| 20260503214556 | 74 | 214 | 3.0 | 15.0 | 0.00 | 0.00 | 0.00 | 46 | 1012.1 |
| 20260503214050 | 74 | 190 | 6.0 | 12.0 | 0.00 | 0.00 | 0.00 | 44 | 1012.1 |
| 20260503213550 | 74 | 157 | 4.0 | 11.0 | 0.00 | 0.00 | 0.00 | 45 | 1012.1 |
| 20260503213051 | 75 | 164 | 5.0 | 11.0 | 0.00 | 0.00 | 0.00 | 50 | 1012.2 |
| 20260503212549 | 74 | 236 | 3.0 | 15.0 | 0.00 | 0.00 | 0.00 | 45 | 1012.2 |
| 20260503212047 | 74 | 216 | 6.0 | 15.0 | 0.00 | 0.00 | 0.00 | 44 | 1012.3 |
| 20260503211547 | 74 | 145 | 4.0 | 15.0 | 0.00 | 0.00 | 0.00 | 45 | 1012.3 |
| 20260503211047 | 74 | 190 | 4.0 | 13.0 | 0.00 | 0.00 | 0.00 | 45 | 1012.6 |
| 20260503210648 | 74 | 242 | 5.0 | 15.0 | 0.00 | 0.00 | 0.00 | 45 | 1012.6 |
| 20260503210050 | 74 | 221 | 6.0 | 21.0 | 0.00 | 0.00 | 0.00 | 43 | 1012.7 |
| 20260503205550 | 74 | 156 | 6.0 | 14.0 | 0.00 | 0.00 | 0.00 | 44 | 1012.8 |
| 20260503205049 | 74 | 213 | 6.0 | 19.0 | 0.00 | 0.00 | 0.00 | 45 | 1012.9 |
| 20260503204548 | 74 | 187 | 11.0 | 19.0 | 0.00 | 0.00 | 0.00 | 44 | 1013.1 |
| 20260503204047 | 74 | 157 | 7.0 | 22.0 | 0.00 | 0.00 | 0.00 | 45 | 1013.2 |
| 20260503203547 | 74 | 196 | 6.0 | 22.0 | 0.00 | 0.00 | 0.00 | 44 | 1013.4 |
| 20260503203048 | 74 | 184 | 4.0 | 13.0 | 0.00 | 0.00 | 0.00 | 43 | 1013.6 |
| 20260503202550 | 74 | 183 | 3.0 | 11.0 | 0.00 | 0.00 | 0.00 | 44 | 1013.6 |
| 20260503202045 | 74 | 133 | 3.0 | 21.0 | 0.00 | 0.00 | 0.00 | 44 | 1013.8 |
| 20260503201549 | 74 | 165 | 10.0 | 21.0 | 0.00 | 0.00 | 0.00 | 41 | 1013.9 |
| 20260503201043 | 74 | 232 | 5.0 | 20.0 | 0.00 | 0.00 | 0.00 | 43 | 1014.0 |
| 20260503200644 | 74 | 151 | 3.0 | 16.0 | 0.00 | 0.00 | 0.00 | 46 | 1014.1 |
| 20260503200047 | 73 | 195 | 6.0 | 20.0 | 0.00 | 0.00 | 0.00 | 43 | 1014.1 |
| 20260503195545 | 73 | 219 | 6.0 | 20.0 | 0.00 | 0.00 | 0.00 | 43 | 1014.3 |
| 20260503195045 | 74 | 234 | 8.0 | 20.0 | 0.00 | 0.00 | 0.00 | 45 | 1014.3 |
| 20260503194553 | 73 | 247 | 5.0 | 16.0 | 0.00 | 0.00 | 0.00 | 42 | 1014.3 |
| 20260503194046 | 74 | 216 | 3.0 | 16.0 | 0.00 | 0.00 | 0.00 | 43 | 1014.6 |
| 20260503193543 | 73 | 308 | 4.0 | 12.0 | 0.00 | 0.00 | 0.00 | 45 | 1014.6 |
| 20260503193041 | 74 | 238 | 6.0 | 12.0 | 0.00 | 0.00 | 0.00 | 43 | 1014.8 |
| 20260503192540 | 73 | 192 | 3.0 | 15.0 | 0.00 | 0.00 | 0.00 | 43 | 1014.9 |
| 20260503192040 | 73 | 145 | 8.0 | 16.0 | 0.00 | 0.00 | 0.00 | 41 | 1014.9 |
| 20260503191539 | 73 | 190 | 5.0 | 16.0 | 0.00 | 0.00 | 0.00 | 42 | 1014.9 |
| 20260503191039 | 72 | 190 | 6.0 | 17.0 | 0.00 | 0.00 | 0.00 | 42 | 1015.0 |
| 20260503190641 | 72 | 196 | 4.0 | 22.0 | 0.00 | 0.00 | 0.00 | 41 | 1015.0 |
| 20260503190046 | 72 | 218 | 5.0 | 21.0 | 0.00 | 0.00 | 0.00 | 44 | 1015.0 |
| 20260503185542 | 72 | 219 | 7.0 | 18.0 | 0.00 | 0.00 | 0.00 | 41 | 1015.2 |
| 20260503185042 | 72 | 210 | 3.0 | 18.0 | 0.00 | 0.00 | 0.00 | 46 | 1015.1 |
| 20260503184543 | 71 | 150 | 9.0 | 18.0 | 0.00 | 0.00 | 0.00 | 41 | 1015.3 |
| 20260503184041 | 72 | 227 | 7.0 | 17.0 | 0.00 | 0.00 | 0.00 | 41 | 1015.4 |
| 20260503183539 | 72 | 178 | 8.0 | 16.0 | 0.00 | 0.00 | 0.00 | 42 | 1015.5 |
| 20260503183042 | 72 | 281 | 4.0 | 15.0 | 0.00 | 0.00 | 0.00 | 43 | 1015.7 |
| 20260503182537 | 72 | 265 | 5.0 | 15.0 | 0.00 | 0.00 | 0.00 | 41 | 1015.7 |
| 20260503182036 | 71 | 208 | 5.0 | 13.0 | 0.00 | 0.00 | 0.00 | 42 | 1015.8 |
| 20260503181554 | 72 | 215 | 3.0 | 15.0 | 0.00 | 0.00 | 0.00 | 45 | 1016.1 |
| 20260503181038 | 71 | 135 | 3.0 | 19.0 | 0.00 | 0.00 | 0.00 | 48 | 1016.1 |
| 20260503180505 | 70 | 233 | 6.0 | 19.0 | 0.00 | 0.00 | 0.00 | 44 | 1016.1 |
| 20260503180013 | 70 | 142 | 3.0 | 18.0 | 0.00 | 0.00 | 0.00 | 47 | 1016.2 |
| 20260503175504 | 71 | 172 | 5.0 | 14.0 | 0.00 | 0.00 | 0.00 | 46 | 1016.5 |
| 20260503175002 | 70 | 229 | 1.0 | 14.0 | 0.00 | 0.00 | 0.00 | 51 | 1016.6 |
| 20260503174618 | 70 | 177 | 3.0 | 12.0 | 0.00 | 0.00 | 0.00 | 42 | 1016.8 |
| 20260503174102 | 69 | 171 | 6.0 | 12.0 | 0.00 | 0.00 | 0.00 | 44 | 1017.1 |
| 20260503173558 | 69 | 190 | 5.0 | 19.0 | 0.00 | 0.00 | 0.00 | 46 | 1017.2 |
| 20260503173110 | 69 | 212 | 7.0 | 19.0 | 0.00 | 0.00 | 0.00 | 44 | 1017.4 |
| 20260503172557 | 69 | 329 | 4.0 | 15.0 | 0.00 | 0.00 | 0.00 | 44 | 1017.5 |
| 20260503172054 | 69 | 222 | 5.0 | 15.0 | 0.00 | 0.00 | 0.00 | 46 | 1017.6 |
| 20260503171552 | 69 | 180 | 3.0 | 10.0 | 0.00 | 0.00 | 0.00 | 46 | 1017.9 |
| 20260503171052 | 68 | 177 | 4.0 | 13.0 | 0.00 | 0.00 | 0.00 | 45 | 1017.9 |
| 20260503170502 | 67 | 308 | 4.0 | 19.0 | 0.00 | 0.00 | 0.00 | 46 | 1018.0 |
| 20260503150645 | 60 | 293 | 7.0 | 14.0 | 0.00 | 0.00 | 0.00 | 56 | 1019.7 |
| 20260503131054 | 49 | 139 | 6.0 | 14.0 | 0.00 | 0.00 | 0.00 | 74 | 1020.0 |
| 20260503130531 | 49 | 190 | 3.0 | 9.0 | 0.00 | 0.00 | 0.00 | 76 | 1020.0 |